[[{"header":{"parameterUnit":"m.s-1","parameterCategory":1,"la1":30.2991,"la2":30.254,"lo1":-89.0895,"lo2":-89.0444,"dy":0.0017,"dx":0.0017,"nx":28,"ny":28,"refTime":"2025-07-10T21:00:00:Z","depth":0,"parameterNumber":2,"parameterNumberName":"U-component_of_WINDS"},"data":[0,0,0,0,0,0,0,0,0,0,0,0,0,0,0,0,0,0,0,0,0,0,0,0,0,0,0,0,0,0,0,0,0,0,0,0,0,0,0,0,0,0,0,0,0,0,0,0,0,0,0,0,0,0,0,0,0,0,3.1577,3.1578,0,3.1623,3.1623,3.1624,3.1611,3.161,3.1609,3.1608,3.1656,3.1658,3.166,0,0,0,0,0,0,0,0,0,0,0,0,0,3.1481,3.1483,3.1577,3.1578,3.1578,3.1623,3.1623,3.1624,3.1611,3.161,3.1609,3.1608,3.1655,3.1658,3.1661,0,0,0,0,0,0,0,0,0,0,0,0,0,3.1524,3.1483,3.1577,3.1577,3.1578,3.1623,3.1623,3.1624,3.1612,3.161,3.1609,3.1607,3.1655,3.1658,3.1661,3.1709,0,0,3.1671,3.1672,0,0,0,0,0,0,0,0,3.1522,3.1528,3.1577,3.1577,3.1578,3.161,3.1607,3.1653,3.1612,3.1599,3.1608,3.1607,3.1642,3.1646,3.1658,3.1711,3.1713,3.1671,3.1673,3.1674,3.1675,0,0,0,0,0,0,0,3.1519,3.1526,3.1595,3.1578,3.1578,3.1576,3.158,3.1616,3.1628,3.16,3.1599,3.1605,3.1642,3.1655,3.1659,3.1714,3.1671,3.1674,3.1676,3.1677,3.181,3.1811,0,0,0,0,0,0,3.1515,3.1523,3.1594,3.1597,3.1546,3.1579,3.1584,3.1601,3.1627,3.163,3.1606,3.1604,3.165,3.1655,3.166,3.1719,3.1674,3.1677,3.1679,3.1808,3.181,3.1812,0,0,0,0,0,0,3.1513,3.1522,3.1592,3.156,3.1569,3.1582,3.1601,3.1603,3.1615,3.1632,3.1634,3.1616,3.1649,3.1656,3.1697,3.1721,3.1679,3.1682,3.1806,3.1809,3.1811,3.1836,0,0,0,0,0,0,3.1511,3.1521,3.1539,3.156,3.157,3.1627,3.1603,3.1605,3.1621,3.1619,3.1642,3.1645,3.1648,3.1692,3.17,3.1724,3.1684,3.1804,3.1807,3.181,3.1833,3.1839,3.1844,0,0,0,0,0,3.1507,3.1544,3.154,3.1548,3.1593,3.1629,3.1635,3.1638,3.1623,3.1641,3.1652,3.1644,3.1716,3.1697,3.1705,3.1731,3.1803,3.1806,3.181,3.1831,3.1838,3.1844,0,0,0,0,0,0,3.1525,3.1547,3.1542,3.1587,3.1606,3.1627,3.165,3.1645,3.1669,3.1666,3.1669,3.1675,3.1717,3.1728,3.1705,3.1779,3.1757,3.1763,3.1771,3.1777,3.1783,3.178,3.1687,0,0,0,0,0,3.1534,3.1561,3.1579,3.1617,3.1627,3.1637,3.1652,3.1653,3.1673,3.1681,3.1695,3.1715,3.1742,3.176,3.1786,3.1835,3.184,3.1856,3.1862,3.1866,3.1871,3.1899,3.1907,3.1823,3.1823,3.1823,0,0,3.1554,3.1569,3.1586,3.1621,3.1636,3.1664,3.1644,3.1674,3.1696,3.1686,3.1726,3.1737,3.1759,3.1805,3.1825,3.1815,3.1896,3.1871,3.1874,3.1877,3.1904,3.1912,3.1919,3.1826,3.1825,3.1825,0,0,3.1604,3.1617,3.1651,3.1667,3.1689,3.1696,3.1704,3.1725,3.1732,3.1772,3.1765,3.1791,3.1838,3.1855,3.1869,3.1927,3.1921,3.1935,3.1964,3.1991,3.1997,3.2003,3.2025,3.2033,3.194,3.194,3.194,0,3.1625,3.1667,3.1669,3.1701,3.1717,3.1709,3.1744,3.1759,3.1789,3.1801,3.1789,3.1848,3.1863,3.1913,3.1927,3.1938,3.1949,3.1933,3.1996,3.2002,3.2008,3.2028,3.2036,3.1942,3.1941,3.1941,3.1941,0,3.1693,3.1723,3.1747,3.1777,3.1796,3.1829,3.1836,3.1855,3.1855,3.1863,3.1904,3.1921,3.1951,3.1963,3.1962,3.2013,3.2006,3.1995,3.1974,3.2017,3.2037,3.2045,3.1944,3.1943,3.1943,3.1942,0,0,3.1756,3.1787,3.1796,3.181,3.1834,3.1857,3.189,3.192,3.1936,3.1957,3.1986,3.2026,3.2016,3.2033,3.2034,3.2058,3.2104,3.2044,3.2045,3.2056,3.2162,3.2172,3.2181,3.21,3.2101,3.2102,3.2161,0,3.181,3.1868,3.1871,3.1924,3.1952,3.1945,3.1974,3.1993,3.2001,3.2027,3.2036,3.2065,3.2049,3.2059,3.2082,3.2093,3.2126,3.2089,3.2128,3.2129,3.2123,3.2191,3.22,3.2255,3.2168,3.217,3.2171,0,3.188,3.1903,3.1959,3.1981,3.1992,3.2018,3.2046,3.207,3.2091,3.2096,3.2115,3.2113,3.2148,3.2125,3.2173,3.2149,3.2165,3.2173,3.2175,3.2179,3.2153,3.2198,3.2272,3.2281,3.2183,3.2182,3.2181,0,3.1922,3.1967,3.2007,3.2019,3.2045,3.2063,3.2075,3.2095,3.2113,3.2137,3.2148,3.2176,3.2192,3.2214,3.222,3.2202,3.2269,3.2246,3.2275,3.2275,3.229,3.2289,3.2369,3.2298,3.2298,3.2298,3.2298,0,3.1982,3.2017,3.2026,3.2051,3.209,3.2093,3.2132,3.2143,3.2161,3.2188,3.2183,3.2209,3.2215,3.2242,3.2247,3.2287,3.2294,3.2299,3.2301,3.2301,3.23,3.2312,3.2309,3.23,3.23,3.2299,3.2299,0,3.2036,3.2044,3.2087,3.2108,3.2114,3.2142,3.216,3.2184,3.2192,3.2227,3.2235,3.2247,3.2279,3.2287,3.2325,3.2328,3.2376,3.2373,3.2369,3.237,3.2399,3.2396,3.2489,3.2502,3.2422,3.2423,3.2424,0,3.2075,3.2102,3.2125,3.2143,3.2156,3.2184,3.2202,3.2206,3.2225,3.2252,3.2273,3.2304,3.2329,3.238,3.2393,3.2423,3.2421,3.2452,3.2425,3.2425,3.2423,3.2422,3.2425,3.2457,3.2458,3.2458,3.2459,0,3.2143,3.2145,3.2171,3.2199,3.2221,3.2243,3.2264,3.2279,3.2286,3.2308,3.234,3.2359,3.2398,3.243,3.2459,3.2472,3.2467,3.2467,3.2476,3.2476,3.2474,3.2477,3.2384,3.2465,3.2464,3.2464,3.2464,3.2463,3.2192,3.2215,3.2236,3.2266,3.2282,3.2302,3.2326,3.2336,3.2363,3.2395,3.2396,3.2431,3.2453,3.2492,3.2506,3.2534,3.2525,3.2537,3.2541,3.2544,3.2547,3.2468,3.254,3.254,3.2539,3.2539,3.2539,0,3.2261,3.2274,3.23,3.233,3.2354,3.2346,3.2369,3.239,3.2421,3.2441,3.2466,3.2504,3.2534,3.2549,3.258,3.26,3.2599,3.2608,3.2607,3.261,3.2553,3.2543,3.2608,3.2608,3.2608,3.2608,3.2608,3.2608,3.2299,3.234,3.2345,3.2394,3.2406,3.2441,3.2455,3.2474,3.249,3.2532,3.2557,3.2567,3.2586,3.2617,3.2645,3.2649,3.2661,3.2672,3.2675,3.2621,3.2614,3.2607,3.2598,3.2674,3.2674,3.273,3.2731,3.2731]},{"header":{"parameterUnit":"m.s-1","parameterCategory":1,"la1":30.2991,"la2":30.254,"lo1":-89.0895,"lo2":-89.0444,"dy":0.0017,"dx":0.0017,"nx":28,"ny":28,"refTime":"2025-07-10T21:00:00:Z","depth":0,"parameterNumber":3,"parameterNumberName":"V-component_of_WINDS"},"data":[0,0,0,0,0,0,0,0,0,0,0,0,0,0,0,0,0,0,0,0,0,0,0,0,0,0,0,0,0,0,0,0,0,0,0,0,0,0,0,0,0,0,0,0,0,0,0,0,0,0,0,0,0,0,0,0,0,0,-0.1207,-0.1208,0,-0.1236,-0.1236,-0.1237,-0.1245,-0.1245,-0.1245,-0.1245,-0.1275,-0.1276,-0.1277,0,0,0,0,0,0,0,0,0,0,0,0,0,-0.1163,-0.1163,-0.1207,-0.1208,-0.1208,-0.1236,-0.1236,-0.1237,-0.1245,-0.1245,-0.1245,-0.1245,-0.1275,-0.1276,-0.1277,0,0,0,0,0,0,0,0,0,0,0,0,0,-0.1186,-0.1164,-0.1207,-0.1216,-0.1217,-0.1236,-0.1236,-0.1237,-0.1245,-0.1245,-0.1245,-0.1245,-0.1274,-0.1276,-0.1277,-0.129,0,0,-0.1281,-0.1282,0,0,0,0,0,0,0,0,-0.1184,-0.1187,-0.1214,-0.1215,-0.1216,-0.1237,-0.1231,-0.1255,-0.1245,-0.1235,-0.1245,-0.1245,-0.1262,-0.1265,-0.1271,-0.1291,-0.1292,-0.1281,-0.1282,-0.1283,-0.1283,0,0,0,0,0,0,0,-0.1183,-0.1186,-0.1219,-0.1215,-0.1216,-0.1219,-0.1222,-0.1236,-0.1249,-0.1236,-0.1236,-0.1239,-0.1263,-0.1269,-0.1271,-0.1293,-0.1281,-0.1282,-0.1283,-0.1284,-0.1327,-0.1328,0,0,0,0,0,0,-0.118,-0.1185,-0.1218,-0.122,-0.12,-0.122,-0.1223,-0.1231,-0.1249,-0.1252,-0.124,-0.124,-0.1267,-0.127,-0.1272,-0.129,-0.1283,-0.1284,-0.1285,-0.1327,-0.1328,-0.1328,0,0,0,0,0,0,-0.1179,-0.1182,-0.1217,-0.1202,-0.1207,-0.1221,-0.1229,-0.1231,-0.1237,-0.1252,-0.1255,-0.1243,-0.1267,-0.127,-0.1286,-0.1291,-0.1285,-0.1286,-0.1327,-0.1327,-0.1328,-0.1324,0,0,0,0,0,0,-0.1177,-0.1182,-0.1186,-0.1202,-0.1208,-0.1229,-0.1229,-0.1232,-0.124,-0.124,-0.1257,-0.1259,-0.1267,-0.1284,-0.1287,-0.1293,-0.1287,-0.1326,-0.1327,-0.1328,-0.1324,-0.1324,-0.1325,0,0,0,0,0,-0.1176,-0.1184,-0.1187,-0.119,-0.1213,-0.1229,-0.1232,-0.1241,-0.124,-0.1245,-0.1255,-0.1259,-0.129,-0.1285,-0.1289,-0.1295,-0.1326,-0.1327,-0.1328,-0.1324,-0.1324,-0.1325,0,0,0,0,0,0,-0.1168,-0.1186,-0.1189,-0.1203,-0.1214,-0.123,-0.1237,-0.1241,-0.1253,-0.1253,-0.1264,-0.1268,-0.1282,-0.129,-0.1285,-0.131,-0.1308,-0.131,-0.1304,-0.1305,-0.1305,-0.1303,-0.1288,0,0,0,0,0,-0.1168,-0.1178,-0.1194,-0.1205,-0.121,-0.1223,-0.123,-0.1236,-0.1248,-0.1253,-0.1264,-0.1276,-0.1289,-0.1297,-0.131,-0.1325,-0.133,-0.1332,-0.1332,-0.1333,-0.1334,-0.1344,-0.1346,-0.133,-0.133,-0.133,0,0,-0.1168,-0.1179,-0.1185,-0.1203,-0.1213,-0.1225,-0.1227,-0.1238,-0.1248,-0.1255,-0.127,-0.1279,-0.1294,-0.1309,-0.1317,-0.1316,-0.1339,-0.1333,-0.1334,-0.1335,-0.1345,-0.1347,-0.1348,-0.1331,-0.1331,-0.1331,0,0,-0.1173,-0.1182,-0.1193,-0.1203,-0.1218,-0.1226,-0.1229,-0.1245,-0.1251,-0.1266,-0.1273,-0.1284,-0.1306,-0.1316,-0.1325,-0.1337,-0.1341,-0.134,-0.1343,-0.1353,-0.1354,-0.1356,-0.1361,-0.1363,-0.1342,-0.1342,-0.1342,0,-0.1171,-0.1188,-0.1198,-0.121,-0.1219,-0.1226,-0.1238,-0.1247,-0.1265,-0.1271,-0.1271,-0.1299,-0.1309,-0.1329,-0.1332,-0.1338,-0.1342,-0.1338,-0.1353,-0.1355,-0.1356,-0.1361,-0.1363,-0.1342,-0.1342,-0.1342,-0.1342,0,-0.1186,-0.1198,-0.1205,-0.1222,-0.1232,-0.1243,-0.1256,-0.1264,-0.127,-0.1279,-0.1296,-0.1309,-0.1325,-0.133,-0.1335,-0.135,-0.135,-0.1351,-0.135,-0.1357,-0.1362,-0.1364,-0.1341,-0.1341,-0.1342,-0.1342,0,0,-0.1186,-0.121,-0.1213,-0.1221,-0.1239,-0.1249,-0.1262,-0.1278,-0.1286,-0.1298,-0.131,-0.1329,-0.1331,-0.1341,-0.1348,-0.1356,-0.1367,-0.1357,-0.1357,-0.1359,-0.1386,-0.1385,-0.1387,-0.137,-0.137,-0.137,-0.1385,0,-0.1194,-0.1217,-0.1227,-0.1245,-0.1258,-0.1266,-0.1278,-0.129,-0.13,-0.1312,-0.1322,-0.1336,-0.1337,-0.1343,-0.1352,-0.1363,-0.1372,-0.1362,-0.1382,-0.1382,-0.1378,-0.1389,-0.1388,-0.1401,-0.1387,-0.1387,-0.1387,0,-0.1207,-0.122,-0.124,-0.1258,-0.1264,-0.1273,-0.129,-0.1301,-0.1317,-0.1323,-0.1334,-0.1341,-0.1356,-0.1354,-0.1376,-0.1369,-0.1378,-0.1385,-0.1386,-0.1388,-0.1385,-0.1393,-0.1405,-0.1407,-0.139,-0.139,-0.139,0,-0.1206,-0.1229,-0.1244,-0.1252,-0.1273,-0.128,-0.1289,-0.1304,-0.1314,-0.1328,-0.1335,-0.1351,-0.136,-0.1373,-0.1385,-0.1382,-0.1406,-0.1404,-0.1412,-0.1412,-0.1416,-0.1416,-0.1431,-0.1421,-0.1421,-0.1421,-0.1421,0,-0.1215,-0.1227,-0.1245,-0.1254,-0.1268,-0.128,-0.1294,-0.1304,-0.1318,-0.133,-0.1339,-0.135,-0.1365,-0.1379,-0.1388,-0.1406,-0.1409,-0.1416,-0.1418,-0.1415,-0.1414,-0.1421,-0.142,-0.1422,-0.1422,-0.1422,-0.1421,0,-0.1216,-0.1228,-0.1246,-0.1265,-0.127,-0.128,-0.1297,-0.1307,-0.1317,-0.1333,-0.1337,-0.1353,-0.137,-0.1383,-0.1405,-0.1411,-0.143,-0.1432,-0.1425,-0.1426,-0.1433,-0.1433,-0.1453,-0.1457,-0.1445,-0.1445,-0.1445,0,-0.122,-0.123,-0.1251,-0.1259,-0.1269,-0.1283,-0.1293,-0.1306,-0.1316,-0.1335,-0.1343,-0.1361,-0.1376,-0.1403,-0.1417,-0.1434,-0.1437,-0.1443,-0.144,-0.1437,-0.1438,-0.1438,-0.1439,-0.1444,-0.1444,-0.1444,-0.1444,0,-0.1228,-0.1234,-0.1248,-0.1264,-0.1276,-0.129,-0.1304,-0.1311,-0.1327,-0.1338,-0.1356,-0.1367,-0.139,-0.1408,-0.1427,-0.1438,-0.1444,-0.1445,-0.1448,-0.1445,-0.144,-0.1444,-0.1427,-0.1444,-0.1444,-0.1444,-0.1444,-0.1444,-0.1231,-0.1241,-0.1257,-0.1273,-0.1285,-0.1298,-0.1309,-0.1321,-0.1336,-0.1356,-0.1363,-0.1381,-0.1398,-0.1425,-0.1436,-0.1451,-0.1451,-0.1455,-0.1456,-0.1457,-0.1457,-0.1438,-0.1454,-0.1454,-0.1454,-0.1454,-0.1454,0,-0.1239,-0.1251,-0.1265,-0.1285,-0.1298,-0.1303,-0.1319,-0.133,-0.1346,-0.1361,-0.1376,-0.1397,-0.1415,-0.1431,-0.145,-0.1459,-0.1463,-0.1464,-0.1464,-0.1466,-0.1455,-0.1451,-0.1461,-0.1461,-0.1461,-0.1461,-0.1461,-0.1461,-0.1245,-0.1262,-0.127,-0.1294,-0.1306,-0.1323,-0.1333,-0.1346,-0.1358,-0.1381,-0.1396,-0.1407,-0.1423,-0.1444,-0.1461,-0.1465,-0.1472,-0.1473,-0.1478,-0.1468,-0.1467,-0.1466,-0.1462,-0.1474,-0.1474,-0.1488,-0.1488,-0.1488]}]]